{"data":{"norad_id":59700,"intl_designator":"2024-086U","name":"STARLINK-32092","alt_names":[],"object_type":"PAYLOAD","status":"ACTIVE","operator":null,"country":"US","launch_date":"2024-05-08","launch_site_code":"AFETR","launch_vehicle":null,"mission":null,"orbit_class":"UNKNOWN","rcs_meters":null,"size_class":null,"mass_kg":null,"dimensions":null,"purposes":["comms"],"wikipedia_slug":null,"has_3d_model":false,"image_url":null,"decayed_at":null,"tle_current":{"epoch":"2026-09-21T09:48:50.483232Z","epoch_age_seconds":92757,"freshness":"FRESH","line1":"1 59700U 24086U   26264.40891763 -.00000469  00000+0 -75265-5 0  9999","line2":"2 59700  43.0043  34.6809 0001240 269.6612  90.4097 15.27578499134044","mean_motion":15.27578499,"eccentricity":0.000124,"inclination_deg":43.0043,"raan_deg":34.6809,"arg_perigee_deg":269.6612,"mean_anomaly_deg":90.4097,"bstar":-7.5265e-6,"rev_number":13404,"period_min":94.266841340243,"perigee_km":482.20280294408,"apogee_km":483.90437821055,"semimajor_km":6861.1905905773,"source":"CELESTRAK","updated_at":"2026-09-22T09:00:49.055926Z"}}}